Weather History for KNQX - May, 2013

Change the Weather History Date:

Saturday, May 11, 2013

  Actual Average (KEYW) Record (KEYW)
Temperature  
Mean Temperature 82 °F 80 °F  
Max Temperature 86 °F 84 °F 90 °F (1873)
Min Temperature 78 °F 75 °F 64 °F (1944)
Degree Days  
Heating Degree Days 0 0  
Month to date heating degree days 0  
Since 1 July heating degree days 73  
Cooling Degree Days 17 15  
Month to date cooling degree days 155  
Year to date cooling degree days 1109  
Growing Degree Days 32 (Base 50)    
Moisture  
Dew Point 74 °F    
Average Humidity 80    
Maximum Humidity 90    
Minimum Humidity 67    
Precipitation  
Precipitation 0.03 in 0.09 in 4.85 in (1883)
Month to date precipitation 0.71  
Year to date precipitation 8.34  
Snow  
Snow 0.00 in - - ()
Month to date snowfall  
Since 1 July snowfall  
Snow Depth -    
Sea Level Pressure  
Sea Level Pressure 30.04 in    
Wind  
Wind Speed 10 mph (SE)    
Max Wind Speed 15 mph    
Max Gust Speed -    
Visibility 9 miles    
Events      
T = Trace of Precipitation, MM = Missing Value Source: NWS Daily Summary

Daily Weather History Graph

Daily Weather History Graph

Search for Another Location

Airport or City:

Trip Planner

Search our weather history database for the weather conditions in past years. The results will help you decide how hot, cold, wet, or windy it might be!

Date:

Astronomy

May. 11, 2013 Rise Set
Actual Time 6:45 AM EDT 8:01 PM EDT
Civil Twilight 6:20 AM EDT 8:25 PM EDT
Nautical Twilight 5:51 AM EDT 8:55 PM EDT
Astronomical Twilight 5:21 AM EDT 9:25 PM EDT
Moon 7:55 AM EDT (5/11) 9:36 PM EDT (5/11)
Length of Visible Light 14h 05m
Length of Day
13h 16m
Waxing Crescent, 3% of the Moon is Illuminated
May 11
Waxing Crescent
May 18
First Quarter
May 25
Full
May 31
Last Quarter
Jun 8
New

Hourly Weather History & Observations

Time (EDT) Temp. Heat Index Dew Point Humidity Pressure Visibility Wind Dir Wind Speed Gust Speed Precip Events Conditions
12:53 AM 79.0 °F - 75.9 °F 90% 30.05 in 10.0 mi SE 11.5 mph - N/A   Clear
1:23 AM 80.6 °F 86.2 °F 75.2 °F 84% 30.05 in 1.8 mi SE 10.4 mph - N/A   Mostly Cloudy
1:31 AM 80.6 °F 86.2 °F 75.2 °F 84% 30.05 in 2.5 mi SE 11.5 mph - N/A   Mostly Cloudy
1:45 AM 80.6 °F 86.2 °F 75.2 °F 84% 30.05 in 7.0 mi SE 8.1 mph - N/A   Mostly Cloudy
1:53 AM 79.0 °F - 75.9 °F 90% 30.04 in 4.0 mi SE 10.4 mph - N/A   Mostly Cloudy
2:53 AM 79.0 °F - 75.9 °F 90% 30.04 in 10.0 mi SE 9.2 mph - N/A   Partly Cloudy
3:53 AM 79.0 °F - 75.0 °F 88% 30.03 in 4.0 mi SE 6.9 mph - N/A   Clear
4:53 AM 79.0 °F - 75.0 °F 88% 30.02 in 10.0 mi SE 9.2 mph - N/A   Clear
5:54 AM 78.8 °F - 75.2 °F 89% 30.02 in 10.0 mi SE 6.9 mph - N/A   Partly Cloudy
6:53 AM 79.0 °F - 75.0 °F 88% 30.04 in 10.0 mi SE 10.4 mph - N/A   Scattered Clouds
7:53 AM 80.1 °F 85.1 °F 75.0 °F 85% 30.04 in 10.0 mi SE 11.5 mph - 0.02 in   Scattered Clouds
8:53 AM 82.0 °F 87.9 °F 73.9 °F 76% 30.05 in 10.0 mi SE 12.7 mph - N/A   Scattered Clouds
9:53 AM 82.9 °F 89.4 °F 73.9 °F 74% 30.06 in 10.0 mi SE 13.8 mph - N/A   Clear
10:53 AM 84.9 °F 92.1 °F 73.9 °F 69% 30.07 in 10.0 mi SE 13.8 mph - N/A   Scattered Clouds
11:53 AM 84.9 °F 92.1 °F 73.9 °F 69% 30.06 in 10.0 mi SSE 15.0 mph - N/A   Clear
12:53 PM 86.0 °F 93.8 °F 73.9 °F 67% 30.05 in 10.0 mi SSE 13.8 mph - N/A   Partly Cloudy
1:53 PM 84.9 °F 92.1 °F 73.9 °F 69% 30.04 in 10.0 mi SSE 10.4 mph - N/A   Scattered Clouds
2:53 PM 84.9 °F 92.1 °F 73.9 °F 69% 30.03 in 10.0 mi South 11.5 mph - N/A   Scattered Clouds
3:53 PM 84.0 °F 90.2 °F 73.0 °F 69% 30.02 in 10.0 mi SSE 8.1 mph - N/A   Scattered Clouds
4:53 PM 84.0 °F 91.2 °F 73.9 °F 72% 30.02 in 10.0 mi SSE 6.9 mph - N/A   Scattered Clouds
5:53 PM 82.9 °F 88.8 °F 73.0 °F 72% 30.01 in 10.0 mi SE 8.1 mph - N/A   Scattered Clouds
6:53 PM 82.0 °F 87.4 °F 73.0 °F 74% 30.01 in 10.0 mi SSE 5.8 mph - N/A   Scattered Clouds
7:53 PM 80.1 °F 84.5 °F 73.9 °F 81% 30.01 in 10.0 mi ESE 5.8 mph - 0.01 in   Scattered Clouds
8:53 PM 79.0 °F - 73.9 °F 84% 30.04 in 10.0 mi East 6.9 mph - N/A   Scattered Clouds
9:53 PM 79.0 °F - 73.9 °F 84% 30.04 in 10.0 mi East 8.1 mph - N/A   Scattered Clouds
10:53 PM 79.0 °F - 73.9 °F 84% 30.05 in 10.0 mi East 10.4 mph - N/A   Clear
11:53 PM 79.0 °F - 73.9 °F 84% 30.05 in 10.0 mi East 9.2 mph - N/A   Clear